[[{"header":{"parameterUnit":"m.s-1","parameterCategory":1,"la1":30.2991,"la2":30.254,"lo1":-89.0895,"lo2":-89.0444,"dy":0.0017,"dx":0.0017,"nx":28,"ny":28,"refTime":"2023-08-17T09:00:00:Z","depth":0,"parameterNumber":2,"parameterNumberName":"U-component_of_WINDS"},"data":[0,0,0,0,0,0,0,0,0,0,0,0,0,0,0,0,0,0,0,0,0,0,0,0,0,0,0,0,0,0,0,0,0,0,0,0,0,0,0,0,0,0,0,0,0,0,0,0,0,0,0,0,0,0,0,0,0,0,0.0731,0.0732,0,0.0826,0.0827,0.0828,0.096,0.0962,0.0964,0.0967,0.1063,0.1063,0.1064,0,0,0,0,0,0,0,0,0,0,0,0,0,0.0662,0.0663,0.0731,0.0732,0.0733,0.0826,0.0827,0.0828,0.096,0.0962,0.0965,0.0968,0.1063,0.1063,0.1064,0,0,0,0,0,0,0,0,0,0,0,0,0,0.0718,0.0663,0.0731,0.081,0.0818,0.0825,0.0827,0.0829,0.0959,0.0962,0.0966,0.0969,0.1062,0.1063,0.1064,0.1001,0,0,0.1066,0.1066,0,0,0,0,0,0,0,0,0.0715,0.072,0.0797,0.0805,0.0814,0.0885,0.0838,0.0886,0.0958,0.0905,0.0967,0.0971,0.1001,0.1007,0.1017,0.1006,0.101,0.1066,0.1066,0.1067,0.1067,0,0,0,0,0,0,0,0.0711,0.0717,0.0769,0.0798,0.0808,0.0841,0.0852,0.0848,0.0933,0.091,0.092,0.093,0.1006,0.1016,0.102,0.1011,0.1066,0.1067,0.1067,0.1067,0.0954,0.0951,0,0,0,0,0,0,0.0695,0.0713,0.0766,0.0771,0.0771,0.0839,0.0852,0.0858,0.0933,0.0948,0.0927,0.0935,0.1013,0.1019,0.1024,0.0957,0.1067,0.1067,0.1068,0.0957,0.0953,0.0949,0,0,0,0,0,0,0.0693,0.0699,0.0762,0.0745,0.0755,0.0837,0.0843,0.0858,0.0869,0.0946,0.0962,0.0922,0.1016,0.1023,0.1006,0.0962,0.1068,0.1068,0.0961,0.0956,0.0951,0.0821,0,0,0,0,0,0,0.0691,0.0697,0.0674,0.0743,0.0756,0.0742,0.084,0.0858,0.087,0.0882,0.0945,0.0959,0.1019,0.1004,0.1007,0.0965,0.1069,0.0966,0.0959,0.0953,0.0829,0.0812,0.0797,0,0,0,0,0,0.0688,0.0633,0.0672,0.0678,0.0729,0.0739,0.0746,0.0817,0.0866,0.0844,0.0893,0.0957,0.0966,0.1001,0.1005,0.0963,0.0969,0.0961,0.0953,0.0837,0.0815,0.0797,0,0,0,0,0,0,0.0557,0.0644,0.0688,0.0655,0.0688,0.0761,0.0736,0.0792,0.0812,0.0823,0.091,0.0923,0.0895,0.0927,0.0965,0.0907,0.0977,0.097,0.0887,0.0867,0.0851,0.0845,0.107,0,0,0,0,0,0.0524,0.0525,0.0601,0.0564,0.0579,0.0653,0.0661,0.0712,0.0751,0.0766,0.0814,0.0848,0.086,0.0865,0.0879,0.0834,0.085,0.0807,0.079,0.0777,0.077,0.075,0.0732,0.0924,0.0924,0.0924,0,0,0.0456,0.0504,0.0499,0.0539,0.0571,0.057,0.0665,0.066,0.066,0.0765,0.0753,0.0788,0.0833,0.0802,0.079,0.0828,0.072,0.0767,0.0755,0.0756,0.074,0.0721,0.0705,0.0919,0.092,0.0921,0,0,0.0333,0.0368,0.0342,0.0372,0.042,0.0471,0.0464,0.0528,0.0557,0.0545,0.0624,0.0625,0.0642,0.0671,0.0688,0.0574,0.0634,0.0576,0.0491,0.0471,0.0455,0.0443,0.0404,0.0388,0.0569,0.0568,0.0568,0,0.0242,0.0245,0.0321,0.0312,0.0327,0.0422,0.0396,0.0421,0.0471,0.0479,0.052,0.0544,0.058,0.0558,0.053,0.054,0.0536,0.057,0.0451,0.0439,0.0428,0.0392,0.0377,0.0561,0.0562,0.0563,0.0563,0,0.0132,0.0133,0.0106,0.0152,0.0164,0.0146,0.0219,0.0222,0.0272,0.0318,0.0305,0.0352,0.0378,0.0376,0.0425,0.036,0.0382,0.0436,0.0509,0.0401,0.0369,0.0356,0.0551,0.0553,0.0556,0.0557,0,0,-0.0069,0.0019,0.0008,0.0031,0.009,0.0092,0.0078,0.0103,0.0105,0.0135,0.0127,0.0138,0.0188,0.0207,0.026,0.0241,0.015,0.0297,0.03,0.027,0.0083,0.0044,0.0027,0.0189,0.0187,0.0185,0.008,0,-0.018,-0.0197,-0.0129,-0.0165,-0.0163,-0.0073,-0.0085,-0.005,-0.0009,-0.0001,0.0045,0.0053,0.0118,0.013,0.0115,0.0164,0.0114,0.0172,0.0183,0.0182,0.0171,0.001,-0.0032,-0.0133,0.0068,0.0066,0.0064,0,-0.031,-0.0286,-0.0321,-0.0259,-0.0256,-0.0268,-0.0238,-0.0233,-0.0192,-0.016,-0.0139,-0.0078,-0.0087,-0.002,-0.003,0.0008,0.0016,0.004,0.0038,0.0043,0.0118,0.0012,-0.0163,-0.0178,0.0045,0.0046,0.0048,0,-0.0452,-0.0429,-0.0446,-0.043,-0.0358,-0.0369,-0.034,-0.0295,-0.0284,-0.0259,-0.025,-0.0227,-0.0214,-0.0198,-0.0132,-0.0089,-0.0151,-0.0078,-0.0124,-0.0126,-0.0139,-0.0139,-0.0314,-0.0138,-0.0138,-0.0137,-0.0137,0,-0.0581,-0.0606,-0.0508,-0.0519,-0.0544,-0.0466,-0.0493,-0.0455,-0.0416,-0.0418,-0.034,-0.0343,-0.0258,-0.0252,-0.0201,-0.0217,-0.0212,-0.0186,-0.0172,-0.0192,-0.0195,-0.0184,-0.0175,-0.0141,-0.014,-0.014,-0.0139,0,-0.0743,-0.0678,-0.0691,-0.0623,-0.0606,-0.0628,-0.0569,-0.0576,-0.053,-0.0533,-0.0529,-0.0456,-0.0445,-0.0379,-0.0353,-0.0318,-0.0352,-0.0325,-0.0366,-0.0356,-0.0406,-0.0401,-0.0578,-0.0597,-0.0411,-0.0413,-0.0415,0,-0.0828,-0.0845,-0.0778,-0.0773,-0.0748,-0.0742,-0.073,-0.0654,-0.0645,-0.06,-0.0612,-0.0595,-0.0576,-0.0563,-0.0507,-0.0487,-0.0458,-0.0521,-0.0454,-0.0473,-0.0456,-0.0455,-0.0456,-0.0535,-0.0538,-0.0539,-0.0541,0,-0.0986,-0.0954,-0.0939,-0.0914,-0.0902,-0.0879,-0.0851,-0.0852,-0.0768,-0.0762,-0.0749,-0.0735,-0.0708,-0.0692,-0.0662,-0.0632,-0.0573,-0.0563,-0.0572,-0.0592,-0.0614,-0.0601,-0.0403,-0.0559,-0.0557,-0.0556,-0.0555,-0.0554,-0.1111,-0.1121,-0.1076,-0.1062,-0.1033,-0.1009,-0.1012,-0.0966,-0.0954,-0.0925,-0.0882,-0.0876,-0.0834,-0.0787,-0.0762,-0.0756,-0.0722,-0.0736,-0.0739,-0.0743,-0.0753,-0.0617,-0.075,-0.075,-0.0749,-0.0749,-0.0748,0,-0.1263,-0.123,-0.1218,-0.1181,-0.1171,-0.1117,-0.1083,-0.1077,-0.1072,-0.1038,-0.1022,-0.1008,-0.0991,-0.0935,-0.0913,-0.0919,-0.0891,-0.0915,-0.0913,-0.0907,-0.0785,-0.0779,-0.0938,-0.0938,-0.0938,-0.0938,-0.0938,-0.0938,-0.1341,-0.1355,-0.1317,-0.1316,-0.1283,-0.1275,-0.126,-0.1237,-0.121,-0.1197,-0.1183,-0.1146,-0.1103,-0.1077,-0.106,-0.1044,-0.1039,-0.1072,-0.1047,-0.0934,-0.0915,-0.0898,-0.0891,-0.1072,-0.1072,-0.1168,-0.1169,-0.117]},{"header":{"parameterUnit":"m.s-1","parameterCategory":1,"la1":30.2991,"la2":30.254,"lo1":-89.0895,"lo2":-89.0444,"dy":0.0017,"dx":0.0017,"nx":28,"ny":28,"refTime":"2023-08-17T09:00:00:Z","depth":0,"parameterNumber":3,"parameterNumberName":"V-component_of_WINDS"},"data":[0,0,0,0,0,0,0,0,0,0,0,0,0,0,0,0,0,0,0,0,0,0,0,0,0,0,0,0,0,0,0,0,0,0,0,0,0,0,0,0,0,0,0,0,0,0,0,0,0,0,0,0,0,0,0,0,0,0,1.278,1.278,0,1.2794,1.2794,1.2794,1.2788,1.2788,1.2788,1.2787,1.28,1.2801,1.2801,0,0,0,0,0,0,0,0,0,0,0,0,0,1.2745,1.2746,1.278,1.278,1.278,1.2794,1.2794,1.2794,1.2788,1.2788,1.2788,1.2787,1.28,1.2801,1.2801,0,0,0,0,0,0,0,0,0,0,0,0,0,1.276,1.2746,1.278,1.2779,1.2779,1.2794,1.2794,1.2794,1.2789,1.2788,1.2788,1.2787,1.28,1.2801,1.2801,1.2817,0,0,1.2804,1.2805,0,0,0,0,0,0,0,0,1.2759,1.2761,1.2779,1.2779,1.2779,1.2789,1.2787,1.2802,1.2789,1.2785,1.2787,1.2787,1.2797,1.2798,1.2801,1.2818,1.2818,1.2804,1.2805,1.2805,1.2806,0,0,0,0,0,0,0,1.2758,1.2761,1.2785,1.2779,1.2779,1.2777,1.2779,1.2789,1.2793,1.2785,1.2785,1.2787,1.2797,1.2801,1.2802,1.2819,1.2804,1.2805,1.2806,1.2806,1.2847,1.2847,0,0,0,0,0,0,1.2758,1.276,1.2785,1.2786,1.2768,1.2778,1.278,1.2786,1.2793,1.2794,1.2787,1.2786,1.2799,1.2801,1.2802,1.282,1.2805,1.2806,1.2807,1.2846,1.2847,1.2847,0,0,0,0,0,0,1.2757,1.276,1.2784,1.2773,1.2776,1.2779,1.2787,1.2787,1.2791,1.2795,1.2795,1.2791,1.2799,1.2801,1.2813,1.282,1.2807,1.2808,1.2846,1.2846,1.2847,1.2856,0,0,0,0,0,0,1.2756,1.276,1.2766,1.2773,1.2776,1.2796,1.2787,1.2788,1.2793,1.2792,1.2798,1.2799,1.2799,1.2812,1.2814,1.2821,1.2808,1.2845,1.2846,1.2847,1.2855,1.2857,1.2858,0,0,0,0,0,1.2755,1.2768,1.2767,1.277,1.2785,1.2797,1.2799,1.2799,1.2793,1.28,1.2802,1.2798,1.2819,1.2813,1.2816,1.2823,1.2844,1.2846,1.2847,1.2854,1.2856,1.2858,0,0,0,0,0,0,1.2762,1.2769,1.2768,1.2784,1.279,1.2796,1.2804,1.2801,1.2808,1.2807,1.2807,1.2808,1.2821,1.2823,1.2817,1.2838,1.2831,1.2833,1.2836,1.2838,1.2839,1.2838,1.2809,0,0,0,0,0,1.2766,1.2776,1.2781,1.2795,1.2798,1.28,1.2805,1.2805,1.2811,1.2813,1.2816,1.2821,1.2828,1.2833,1.2841,1.2855,1.2856,1.2862,1.2863,1.2865,1.2866,1.2872,1.2874,1.2851,1.2851,1.2851,0,0,1.2774,1.2779,1.2785,1.2797,1.2801,1.281,1.2802,1.2812,1.2818,1.2814,1.2826,1.2828,1.2834,1.2847,1.2853,1.2849,1.2872,1.2866,1.2867,1.2868,1.2873,1.2876,1.2878,1.2852,1.2852,1.2851,0,0,1.2792,1.2797,1.2809,1.2813,1.282,1.2821,1.2824,1.2829,1.2831,1.2843,1.2839,1.2846,1.286,1.2863,1.2866,1.2884,1.2881,1.2887,1.2895,1.2901,1.2903,1.2905,1.291,1.2912,1.2888,1.2888,1.2888,0,1.28,1.2814,1.2815,1.2824,1.2829,1.2826,1.2836,1.284,1.2849,1.2852,1.2848,1.2863,1.2867,1.288,1.2884,1.2888,1.289,1.2886,1.2903,1.2905,1.2906,1.2911,1.2913,1.2889,1.2889,1.2888,1.2888,0,1.2823,1.2832,1.2841,1.2849,1.2854,1.2865,1.2866,1.2871,1.287,1.2871,1.2882,1.2886,1.2894,1.2897,1.2896,1.2909,1.2907,1.2903,1.2896,1.2909,1.2913,1.2915,1.2889,1.2889,1.2889,1.2889,0,0,1.2846,1.2854,1.2857,1.286,1.2866,1.2873,1.2883,1.289,1.2894,1.2899,1.2906,1.2917,1.2913,1.2917,1.2917,1.2922,1.2934,1.2917,1.2918,1.2919,1.2947,1.2949,1.2951,1.2932,1.2932,1.2933,1.2946,0,1.2863,1.288,1.2881,1.2896,1.2903,1.29,1.2908,1.2912,1.2913,1.2919,1.292,1.2927,1.2923,1.2925,1.293,1.2931,1.2939,1.2931,1.2937,1.2937,1.2935,1.2954,1.2956,1.2969,1.2948,1.2948,1.2949,0,1.2886,1.2892,1.2908,1.2912,1.2915,1.2922,1.2928,1.2934,1.2938,1.2939,1.2943,1.2941,1.2949,1.2943,1.2953,1.2947,1.295,1.2951,1.2951,1.2951,1.2943,1.2953,1.2973,1.2974,1.2951,1.2951,1.2951,0,1.2899,1.2912,1.2922,1.2925,1.293,1.2935,1.2937,1.2941,1.2945,1.295,1.2952,1.2958,1.2961,1.2965,1.2965,1.296,1.2975,1.2968,1.2974,1.2974,1.2977,1.2976,1.2996,1.2981,1.298,1.298,1.298,0,1.2918,1.2927,1.2928,1.2934,1.2944,1.2944,1.2953,1.2955,1.2958,1.2964,1.2962,1.2967,1.2967,1.2972,1.2972,1.2979,1.2981,1.2981,1.298,1.298,1.298,1.2981,1.298,1.2981,1.2981,1.2981,1.2981,0,1.2934,1.2935,1.2946,1.295,1.2951,1.2958,1.2961,1.2966,1.2967,1.2975,1.2976,1.2978,1.2983,1.2983,1.299,1.299,1.2999,1.2998,1.2998,1.2997,1.3002,1.3001,1.3023,1.3025,1.3009,1.3009,1.3009,0,1.2945,1.2952,1.2956,1.296,1.2963,1.2969,1.2973,1.2973,1.2976,1.2981,1.2986,1.2991,1.2996,1.3005,1.3006,1.3011,1.3009,1.3016,1.301,1.3009,1.3008,1.3007,1.3007,1.3017,1.3018,1.3018,1.3018,0,1.2964,1.2964,1.2969,1.2975,1.2979,1.2984,1.2988,1.2991,1.2991,1.2995,1.3001,1.3005,1.3011,1.3017,1.3021,1.3023,1.302,1.302,1.3021,1.3021,1.302,1.3019,1.3,1.3019,1.3019,1.3019,1.3019,1.3019,1.2976,1.2982,1.2986,1.2992,1.2995,1.2998,1.3003,1.3004,1.301,1.3015,1.3014,1.3021,1.3024,1.3029,1.3031,1.3036,1.3033,1.3035,1.3036,1.3036,1.3036,1.302,1.3036,1.3036,1.3036,1.3036,1.3036,0,1.2994,1.2996,1.3001,1.3007,1.3011,1.3009,1.3013,1.3017,1.3022,1.3025,1.303,1.3036,1.3041,1.3042,1.3046,1.3049,1.3048,1.3051,1.305,1.305,1.3039,1.3036,1.3051,1.3051,1.3051,1.3051,1.3051,1.3051,1.3003,1.3012,1.3012,1.3022,1.3024,1.303,1.3032,1.3035,1.3037,1.3044,1.3048,1.3049,1.3051,1.3056,1.306,1.306,1.3061,1.3063,1.3063,1.3052,1.3051,1.3049,1.3047,1.3064,1.3064,1.3074,1.3074,1.3074]}]]